SCP
0 0 0 0 0 0 0 0 0 0 0 0 0 0 -0 -0 -0 0 0 0 0 0 0 0 0 0 0 0 0 0 0 0 0 0 0 0 0 0 0 0 0 0 0 0 0 0 0
0 0 0 0 0 0 0 0 0 0 0 0 0 0 0 -0 -0 -0 0 0 0 0 0 0 0 0 0 -0 0 0 0 0 0 0 0 0 0 0 0 0 0 0 -0 0 0 0 0
0 0 0 0 0 0 0 0 0 0 0 0 0 0 0 0 0 0 -0 0 0 0 0 0 0 0 0 0 0 0 0 0 0 0 0 0 0 0 0 0 0 0 0 0 0 0 0
0 0 0 0 0 0 0 0 0 0 0 0 0 0 0 0 0 0 0 0 0 0 0 0 0 0 0 0 0 0 0 0 0 0 0 0 0 0 0 0 0 0 0 0 0 0 0
0 0 0 0 0 0 0 0 0 0 0 0 0 0 0 0 0 0 0 0 0 0 0 0 0 0 0 0 0 0 0 0 0 0 0 0 0 0 0 0 0 0 0 0 0 0 0
0 0 0 0 0 0 0 0 0 0 0 0 0 0 0 0 0 0 0 0 0 0 0 0 0 0 0 0 0 0 0 0 0 0 0 0 0 0 0 0 0 0 0 0 0 0 0
0 0 0 0 0 0 0 0 0 0 0 0 0 0 0 0 0 0 0 0 0 0 0 0 0 0 0 0 0 0 0 0 0 0 0 0 0 0 0 0 0 0 0 0 0 0 0
0 0 0 0 0 0 0 0 0 0 0 0 0 0 0 0 0 0 0 0 0 0 0 0 -0 0 0 0 0 0 0 0 0 0 0 0 0 0 0 0 0 0 0 0 0 0 0
0 0 0 0 0 0 0 0 0 0 0 0 0 0 0 0 0 0 0 0 0 0 0 0 0 0 0 0 0 0 0 0 0 0 0 0 0 0 0 0 0 0 0 0 0 0 0
0 0 0 0 0 0 0 0 0 0 0 0 0 0 0 0 0 0 0 0 0 0 0 0 0 0 0 0 0 0 0 0 0 0 0 0 0 0 0 0 0 0 0 0 0 0 0
0 0 0 0 0 0 0 0 0 0 0 0 0 0 0 0 0 0 0 0 0 0 0 0 0 0 0 0 0 0 0 0 0 0 0 0 0 0 0 0 0 0 0 0 0 0 0
0 0 0 0 0 0 0 0 0 0 0 0 0 0 0 0 0 0 0 0 0 0 0 0 0 0 0 0 0 0 0 0 0 0 0 0 0 0 0 0 0 0 0 0 0 0 0
0 0 0 0 0 0 0 0 0 0 0 0 0 0 0 0 0 0 0 0 0 0 0 0 0 0 0 0 0 0 0 0 0 0 0 0 0 0 0 0 0 0 0 0 0 0 0
0 0 0 0 0 0 0 0 0 0 0 0 0 0 0 0 0 0 0 0 0 0 0 0 0 0 0 0 0 0 0 0 0 0 0 0 0 0 0 0 0 0 0 0 0 0 0
0 0 0 0 0 0 0 0 0 0 0 0 0 0 0 0 0 0 0 0 0 0 0 0 0 0 0 0 0 0 0 0 0 0 0 0 0 0 0 0 0 0 0 0 0 0 0
0 0 0 0 0 0 0 0 0 0 0 0 0 0 0 0 0 0 0 0 0 0 0 0 0 0 0 0 0 0 0 0 0 0 0 0 0 0 0 0 0 0 0 0 0 0 0
0 0 0 0 0 0 0 0 0 0 0 0 0 0 0 0 0 0 0 0 0 0 0 0 0 0 0 0 0 0 0 0 0 0 0 0 0 0 0 0 0 0 0 0 0 0 0
0 0 0 0 0 0 0 0 0 0 0 0 0 0 0 0 0 0 0 0 0 0 0 0 0 0 0 0 0 0 0 0 0 0 0 0 0 0 0 0 0 0 0 0 0 0 0
0 0 0 0 0 0 0 0 0 0 0 0 0 0 0 -0 0 -0 0 0 0 0 0 0 0 0 0 0 0 0 0 0 0 0 0 0 0 0 0 0 0 0 0 0 0 0 0
0 0 0 0 0 0 0 0 0 0 0 0 -0 0 0 0 -0 0 0 0 0 0 0 0 0 0 0 0 0 0 0 0 0 0 0 0 0 0 0 0 0 0 0 0 0 0 0
0 0 0 0 0 0 0 0 0 0 0 0 -0 -0 0 0 -0 0 0 0 0 0 0 0 0 0 0 0 0 0 0 0 0 0 0 0 0 0 0 0 0 0 0 0 0 0 0
0 0 0 0 0 0 0 0 0 0 0 -0 -0 -0 -0 0 0 0 0 0 0 0 0 -0 0 0 -0 -0 0 0 0 0 0 0 0 0 0 0 0 0 0 0 0 0 0 0 0
0 0 0 0 0 0 0 0 0 0 0 -0 -0 -0 0 -0 -0 0 0 0 0 0 0 0 0 0 0 0 0 0 0 0 0 0 0 0 0 0 0 0 0 0 0 0 0 0 0
0 0 0 0 0 0 -0 -0 0 0 0 -0 -0 0 0 0 -0 -0 0 0 0 0 0 0 0 0 0 0 0 0 0 0 0 0 0 0 0 0 0 0 0 0 0 0 0 0 0
0 0 0 0 0 0 -0 -0 0 0 0 -0 -0 -0 0 0 0 0 -0 0 0 0 0 0 0 0 -0 0 0 0 0 0 0 0 0 0 0 0 0 0 0 0 0 0 0 0 0
0 0 0 0 0 -0 -0 -0 -0 -0 0 0 -0 0 0 0 0 0 0 0 0 0 0 0 0 0 0 0 0 0 0 0 0 0 0 0 0 0 0 0 0 0 0 0 0 0 0
0 0 0 0 0 -0 -0 -0 0 -0 -0 -0 -0 -0 0 0 0 0 0 0 0 0 0 0 0 0 0 0 0 0 0 0 0 0 0 0 0 0 0 0 0 0 0 0 0 0 0
0 0 0 0 0 0 -0 0 -0 -0 -0 -0 -0 -0 -0 0 0 0 0 0 0 0 0 0 0 0 0 0 0 0 0 0 0 0 0 0 0 0 0 0 0 0 0 0 0 0 0
0 0 0 0 -0 0 0 0 -0 -0 -0 -0 0 0 -0 -0 0 0 0 0 0 0 0 0 0 0 0 0 0 0 0 0 0 0 0 0 0 0 0 0 0 0 0 0 0 0 0
Wind_Speed_500mb
44 41 44 47 44 50 45 39 37 37 38 39 36 38 43 42 39 39 38 36 36 36 36 36 32 24 16 17 53 30 18 10 64 72 67 45 52 50 37 24 18 22 27 22 49 61 39
41 40 45 42 44 48 48 42 39 37 38 39 38 35 38 42 43 41 43 41 39 37 37 37 31 26 17 17 22 26 21 18 54 73 74 56 41 31 41 27 39 42 44 46 32 40 22
40 40 42 40 42 46 48 49 45 42 40 38 38 38 36 38 41 43 42 43 41 40 39 37 29 24 27 49 18 19 11 10 50 76 78 63 34 31 28 13 41 19 28 36 44 39 25
38 40 39 38 41 47 49 48 48 45 41 43 42 41 39 38 39 40 44 43 41 39 39 35 22 21 28 20 22 38 26 16 45 61 44 57 28 31 10 12 17 23 20 19 19 34 20
38 42 37 38 43 48 51 50 49 48 46 45 43 44 43 40 39 40 44 44 38 37 28 20 20 20 29 19 30 28 23 18 50 29 29 34 34 21 15 14 15 17 24 26 7 31 17
38 44 39 41 45 48 51 53 53 51 50 48 46 45 46 45 44 43 42 39 29 13 5 14 10 10 33 14 16 27 34 28 49 44 24 28 18 17 17 21 31 28 24 14 29 16 15
44 43 40 41 45 49 54 57 57 56 55 55 50 47 45 48 46 44 44 35 7 12 33 31 23 16 7 14 16 37 49 46 38 37 19 19 22 36 42 26 22 18 18 21 10 8 11
48 45 42 43 46 51 56 60 62 63 63 61 55 48 44 46 47 47 45 26 27 8 20 48 64 39 34 7 13 44 58 24 34 37 18 18 35 29 21 15 19 17 15 13 9 8 7
50 50 47 48 50 57 62 64 64 67 65 65 61 52 48 46 49 44 19 20 7 12 14 18 50 57 47 32 15 42 60 26 36 39 33 32 27 26 26 23 19 12 20 11 12 2 6
50 52 52 53 58 62 65 68 71 69 67 71 68 60 49 46 36 20 43 7 11 12 9 12 19 22 35 28 15 35 60 40 12 35 24 15 14 36 27 27 21 23 21 19 18 11 14
49 46 51 58 62 65 67 72 69 67 76 81 77 63 47 36 47 42 10 4 6 21 9 11 14 14 36 44 32 28 63 35 22 19 16 18 25 28 25 25 23 12 18 23 19 15 7
56 52 53 56 57 60 68 61 57 78 85 86 74 63 51 51 45 40 28 13 12 8 15 11 16 25 28 40 9 27 40 28 21 16 14 13 7 16 22 17 30 19 10 9 6 5 15
53 48 51 54 54 54 59 59 67 73 83 93 74 63 56 56 61 16 27 25 9 11 8 13 13 23 38 41 23 17 31 30 26 29 25 16 15 9 8 20 18 12 17 7 9 10 11
53 53 53 52 52 55 56 62 68 76 86 75 70 72 63 57 47 38 30 9 17 15 30 4 9 26 32 47 37 6 25 29 19 24 22 24 22 26 13 17 17 21 20 11 13 9 7
58 56 55 56 56 58 59 62 65 63 66 71 82 70 56 38 24 47 23 13 18 14 5 4 10 36 20 37 29 36 14 24 22 19 13 24 18 7 11 20 21 12 13 7 4 5 5
57 56 55 54 53 53 53 57 58 59 62 70 74 56 33 25 19 58 15 26 14 9 5 4 16 25 29 47 27 38 43 36 31 29 18 7 9 7 7 17 8 19 23 11 6 14 16
57 58 56 56 51 51 54 57 57 58 62 62 54 24 19 4 41 31 19 23 27 15 6 5 16 10 24 43 33 34 34 12 24 19 12 22 9 14 9 2 17 13 12 5 6 3 13
57 58 59 61 54 48 52 57 56 54 57 58 27 11 15 33 12 9 22 19 27 23 6 8 7 6 6 31 25 14 20 7 18 24 21 3 7 17 14 9 5 5 8 8 11 17 1
58 59 60 60 58 52 52 55 53 50 46 54 31 18 8 40 8 11 22 33 32 23 8 6 6 5 11 3 12 10 13 9 16 12 26 16 6 13 8 1 3 2 4 6 10 4 17
50 52 57 61 59 56 54 49 49 49 39 43 14 8 9 27 27 6 10 18 23 22 16 12 4 16 4 5 24 9 15 11 8 17 24 17 7 4 14 8 10 10 11 11 7 8 19
50 56 60 59 59 55 52 48 48 48 39 34 9 7 12 9 10 12 13 6 9 10 4 15 4 9 15 5 9 7 8 20 14 8 12 6 7 8 11 12 7 9 17 15 17 12 14
49 54 59 57 57 54 49 43 47 46 41 16 8 11 20 17 28 21 1 14 9 8 4 19 8 11 14 15 13 21 11 1 7 9 8 5 9 10 8 4 3 7 16 18 22 20 23
47 48 54 59 57 49 47 41 44 39 35 15 31 24 21 13 18 17 17 8 8 7 30 26 28 10 24 22 32 32 21 18 13 10 7 6 11 7 8 4 2 15 24 32 18 16 19
45 49 55 59 50 46 37 38 39 38 30 30 37 34 11 11 16 15 18 14 34 13 17 13 19 2 4 41 39 38 47 42 35 25 12 13 10 5 8 8 9 8 6 4 22 14 23
41 49 52 60 49 36 38 39 36 34 29 33 35 19 12 8 18 18 29 10 34 38 26 18 20 11 15 10 7 9 7 7 15 22 19 9 10 8 8 8 8 3 7 7 5 4 9
41 48 51 54 45 33 40 37 36 33 33 31 23 28 14 10 13 21 9 29 11 10 14 10 12 4 5 7 5 5 5 9 8 5 13 14 15 8 6 5 8 5 7 5 6 6 6
40 44 48 48 40 32 38 34 33 34 31 26 21 27 16 7 12 24 8 9 8 3 6 8 14 12 12 4 5 4 6 3 9 12 11 8 4 7 8 2 8 8 11 9 5 5 11
35 43 46 42 34 32 35 30 30 32 33 26 18 24 22 10 10 17 25 20 13 11 4 4 5 6 5 7 4 4 4 5 6 14 14 13 12 9 8 7 11 15 14 8 8 5 6
33 40 42 39 33 30 27 27 30 31 31 28 20 21 19 10 13 32 21 11 11 15 9 14 5 4 5 6 4 4 4 3 3 9 5 9 3 7 10 4 4 11 9 2 3 9 10
Wind_Direction_500mb
339 338 335 333 339 341 338 333 329 326 322 318 313 311 311 309 308 307 306 304 304 306 308 314 305 270 267 251 249 275 291 229 190 193 194 182 184 193 196 193 138 240 224 211 259 256 253
335 333 329 335 340 340 344 341 337 330 323 323 323 316 314 312 307 303 301 300 299 299 300 306 299 259 240 252 263 255 271 250 199 189 186 179 186 177 193 191 192 204 223 234 248 252 246
330 330 327 334 338 341 342 342 338 332 327 326 324 323 318 317 313 306 298 295 296 292 292 294 284 247 252 248 264 250 283 244 196 192 184 184 175 173 158 158 206 188 200 223 213 246 258
329 327 326 331 336 338 341 338 335 331 326 322 323 323 320 319 317 310 304 298 297 290 289 281 251 226 255 263 239 242 254 227 196 191 196 195 188 196 180 145 148 199 229 228 211 199 231
328 324 324 328 333 337 340 339 334 330 326 320 317 317 317 314 314 311 305 303 306 295 284 246 193 218 263 245 239 219 203 200 172 170 190 183 189 200 179 186 170 191 210 211 238 200 178
327 325 321 325 330 336 340 341 338 330 325 322 316 314 314 314 313 312 307 303 306 282 196 168 209 242 250 234 216 189 163 176 157 156 133 177 182 199 197 194 194 186 203 196 205 189 212
328 322 319 322 327 334 338 336 337 338 335 327 322 317 314 313 312 310 308 314 253 232 205 200 209 215 284 203 178 171 167 146 150 169 173 172 190 204 196 204 209 191 200 213 197 164 167
326 321 317 320 324 329 332 331 333 334 337 335 325 316 310 307 307 304 294 258 224 218 270 248 237 246 235 138 171 164 152 144 155 172 163 161 205 204 203 203 209 200 202 205 261 253 200
325 321 316 318 321 325 327 326 328 327 329 330 329 320 313 308 309 304 282 262 270 210 262 254 226 225 230 226 224 181 173 145 166 170 183 185 190 180 173 183 188 204 221 210 241 71 235
328 324 319 317 315 317 319 317 319 324 323 324 325 325 318 312 311 288 303 232 212 219 270 232 196 229 197 196 217 188 182 167 166 177 172 188 158 178 177 184 188 206 204 217 223 211 230
320 319 317 314 312 317 317 319 319 319 319 320 320 319 313 306 292 285 273 29 266 180 269 157 162 165 173 171 140 179 182 183 175 156 173 168 171 161 183 205 192 220 191 207 216 209 208
318 309 306 307 307 312 316 318 313 317 317 317 316 312 309 302 283 284 252 207 158 209 247 192 148 175 163 190 143 141 173 187 161 144 193 159 161 183 200 177 187 155 118 78 97 174 242
330 330 324 319 315 311 309 309 311 315 316 315 315 307 296 284 268 298 197 175 196 223 307 182 179 172 182 164 168 177 168 179 174 173 186 184 170 154 153 137 159 174 168 170 209 218 249
331 331 325 327 319 317 316 314 310 313 312 318 318 312 304 284 268 234 170 191 215 211 232 357 173 163 184 172 178 188 184 178 187 177 178 183 199 215 158 198 173 189 195 195 206 216 227
334 333 333 333 330 326 327 329 329 330 329 327 322 322 307 309 235 200 214 205 218 207 244 200 238 163 184 167 168 186 232 192 182 169 166 185 181 125 210 205 195 164 201 233 127 54 249
340 337 337 337 336 337 336 336 335 334 330 331 329 317 305 338 203 177 208 226 223 218 155 123 208 192 175 185 158 181 189 206 185 188 165 188 173 219 117 157 86 215 154 169 197 218 235
342 344 342 338 338 342 338 335 334 334 333 338 337 311 337 320 160 176 212 223 229 246 112 60 219 210 209 180 194 186 178 164 184 157 157 151 159 173 215 60 161 150 176 96 141 231 233
344 346 349 349 344 342 338 334 335 336 335 343 338 301 349 157 178 211 224 225 235 237 136 117 218 91 306 166 174 154 159 154 160 147 161 39 123 156 187 24 317 58 131 182 220 199 174
348 348 347 345 344 341 338 338 338 341 340 341 317 278 298 193 216 223 234 228 241 251 158 146 152 135 339 280 126 126 110 29 129 130 152 173 122 131 122 79 40 155 106 114 102 121 199
344 347 345 345 344 343 341 341 342 342 337 338 302 303 281 204 279 330 241 233 229 224 185 135 86 131 340 347 45 116 114 48 76 99 108 105 96 116 184 115 129 158 157 151 196 211 239
345 349 348 345 346 345 343 344 344 343 342 331 268 274 341 318 329 320 277 23 312 204 93 63 71 46 139 41 67 53 89 119 54 34 52 87 91 82 70 116 116 150 178 183 208 219 224
354 347 349 346 345 345 348 346 346 349 346 342 293 332 326 304 340 343 155 22 335 102 104 143 108 359 247 177 189 170 152 154 118 67 80 39 119 126 135 115 116 242 238 235 237 241 248
345 345 347 345 343 345 348 350 344 351 356 346 335 321 300 301 2 358 356 64 299 188 54 88 115 104 88 83 95 96 101 75 105 114 98 80 130 132 146 76 17 265 240 223 210 202 223
352 353 351 348 345 347 353 354 344 352 351 345 337 334 310 328 5 4 349 44 48 45 113 58 64 172 91 111 89 69 62 62 60 49 60 119 100 68 123 142 215 89 206 276 207 207 212
348 351 351 352 349 354 355 354 349 351 351 343 339 343 319 326 357 354 10 32 59 56 78 69 29 339 144 47 81 89 59 72 35 36 29 82 108 107 159 197 329 162 167 165 181 132 194
351 350 352 354 356 358 354 355 358 354 355 348 354 3 340 313 17 333 345 40 43 42 26 64 62 33 34 48 74 117 131 113 134 95 37 65 88 100 150 194 196 90 121 102 133 239 141
352 350 352 353 353 350 351 354 1 6 2 359 6 3 340 325 11 15 355 14 73 352 95 342 354 9 29 89 84 92 108 122 128 133 161 129 74 157 159 197 275 212 147 140 214 71 151
349 350 350 354 354 350 350 357 4 5 4 8 350 354 13 340 335 37 14 23 21 29 32 68 227 18 18 65 63 72 94 86 116 131 157 165 160 183 169 188 249 136 135 221 78 170 223
350 350 353 356 348 2 353 2 5 10 360 6 9 351 336 319 298 322 337 356 23 34 24 23 87 33 47 94 81 129 99 103 112 157 128 176 225 179 206 198 51 157 93 25 294 283 281
Wind_Speed_850mb
44 41 44 47 44 50 45 39 37 37 38 39 36 38 43 42 39 39 38 36 36 36 36 36 32 24 16 17 53 30 18 10 64 72 67 45 52 50 37 24 18 22 27 22 49 61 39
41 40 45 42 44 48 48 42 39 37 38 39 38 35 38 42 43 41 43 41 39 37 37 37 31 26 17 17 22 26 21 18 54 73 74 56 41 31 41 27 39 42 44 46 32 40 22
40 40 42 40 42 46 48 49 45 42 40 38 38 38 36 38 41 43 42 43 41 40 39 37 29 24 27 49 18 19 11 10 50 76 78 63 34 31 28 13 41 19 28 36 44 39 25
38 40 39 38 41 47 49 48 48 45 41 43 42 41 39 38 39 40 44 43 41 39 39 35 22 21 28 20 22 38 26 16 45 61 44 57 28 31 10 12 17 23 20 19 19 34 20
38 42 37 38 43 48 51 50 49 48 46 45 43 44 43 40 39 40 44 44 38 37 28 20 20 20 29 19 30 28 23 18 50 29 29 34 34 21 15 14 15 17 24 26 7 31 17
38 44 39 41 45 48 51 53 53 51 50 48 46 45 46 45 44 43 42 39 29 13 5 14 10 10 33 14 16 27 34 28 49 44 24 28 18 17 17 21 31 28 24 14 29 16 15
44 43 40 41 45 49 54 57 57 56 55 55 50 47 45 48 46 44 44 35 7 12 33 31 23 16 7 14 16 37 49 46 38 37 19 19 22 36 42 26 22 18 18 21 10 8 11
48 45 42 43 46 51 56 60 62 63 63 61 55 48 44 46 47 47 45 26 27 8 20 48 64 39 34 7 13 44 58 24 34 37 18 18 35 29 21 15 19 17 15 13 9 8 7
50 50 47 48 50 57 62 64 64 67 65 65 61 52 48 46 49 44 19 20 7 12 14 18 50 57 47 32 15 42 60 26 36 39 33 32 27 26 26 23 19 12 20 11 12 2 6
50 52 52 53 58 62 65 68 71 69 67 71 68 60 49 46 36 20 43 7 11 12 9 12 19 22 35 28 15 35 60 40 12 35 24 15 14 36 27 27 21 23 21 19 18 11 14
49 46 51 58 62 65 67 72 69 67 76 81 77 63 47 36 47 42 10 4 6 21 9 11 14 14 36 44 32 28 63 35 22 19 16 18 25 28 25 25 23 12 18 23 19 15 7
56 52 53 56 57 60 68 61 57 78 85 86 74 63 51 51 45 40 28 13 12 8 15 11 16 25 28 40 9 27 40 28 21 16 14 13 7 16 22 17 30 19 10 9 6 5 15
53 48 51 54 54 54 59 59 67 73 83 93 74 63 56 56 61 16 27 25 9 11 8 13 13 23 38 41 23 17 31 30 26 29 25 16 15 9 8 20 18 12 17 7 9 10 11
53 53 53 52 52 55 56 62 68 76 86 75 70 72 63 57 47 38 30 9 17 15 30 4 9 26 32 47 37 6 25 29 19 24 22 24 22 26 13 17 17 21 20 11 13 9 7
58 56 55 56 56 58 59 62 65 63 66 71 82 70 56 38 24 47 23 13 18 14 5 4 10 36 20 37 29 36 14 24 22 19 13 24 18 7 11 20 21 12 13 7 4 5 5
57 56 55 54 53 53 53 57 58 59 62 70 74 56 33 25 19 58 15 26 14 9 5 4 16 25 29 47 27 38 43 36 31 29 18 7 9 7 7 17 8 19 23 11 6 14 16
57 58 56 56 51 51 54 57 57 58 62 62 54 24 19 4 41 31 19 23 27 15 6 5 16 10 24 43 33 34 34 12 24 19 12 22 9 14 9 2 17 13 12 5 6 3 13
57 58 59 61 54 48 52 57 56 54 57 58 27 11 15 33 12 9 22 19 27 23 6 8 7 6 6 31 25 14 20 7 18 24 21 3 7 17 14 9 5 5 8 8 11 17 1
58 59 60 60 58 52 52 55 53 50 46 54 31 18 8 40 8 11 22 33 32 23 8 6 6 5 11 3 12 10 13 9 16 12 26 16 6 13 8 1 3 2 4 6 10 4 17
50 52 57 61 59 56 54 49 49 49 39 43 14 8 9 27 27 6 10 18 23 22 16 12 4 16 4 5 24 9 15 11 8 17 24 17 7 4 14 8 10 10 11 11 7 8 19
50 56 60 59 59 55 52 48 48 48 39 34 9 7 12 9 10 12 13 6 9 10 4 15 4 9 15 5 9 7 8 20 14 8 12 6 7 8 11 12 7 9 17 15 17 12 14
49 54 59 57 57 54 49 43 47 46 41 16 8 11 20 17 28 21 1 14 9 8 4 19 8 11 14 15 13 21 11 1 7 9 8 5 9 10 8 4 3 7 16 18 22 20 23
47 48 54 59 57 49 47 41 44 39 35 15 31 24 21 13 18 17 17 8 8 7 30 26 28 10 24 22 32 32 21 18 13 10 7 6 11 7 8 4 2 15 24 32 18 16 19
45 49 55 59 50 46 37 38 39 38 30 30 37 34 11 11 16 15 18 14 34 13 17 13 19 2 4 41 39 38 47 42 35 25 12 13 10 5 8 8 9 8 6 4 22 14 23
41 49 52 60 49 36 38 39 36 34 29 33 35 19 12 8 18 18 29 10 34 38 26 18 20 11 15 10 7 9 7 7 15 22 19 9 10 8 8 8 8 3 7 7 5 4 9
41 48 51 54 45 33 40 37 36 33 33 31 23 28 14 10 13 21 9 29 11 10 14 10 12 4 5 7 5 5 5 9 8 5 13 14 15 8 6 5 8 5 7 5 6 6 6
40 44 48 48 40 32 38 34 33 34 31 26 21 27 16 7 12 24 8 9 8 3 6 8 14 12 12 4 5 4 6 3 9 12 11 8 4 7 8 2 8 8 11 9 5 5 11
35 43 46 42 34 32 35 30 30 32 33 26 18 24 22 10 10 17 25 20 13 11 4 4 5 6 5 7 4 4 4 5 6 14 14 13 12 9 8 7 11 15 14 8 8 5 6
33 40 42 39 33 30 27 27 30 31 31 28 20 21 19 10 13 32 21 11 11 15 9 14 5 4 5 6 4 4 4 3 3 9 5 9 3 7 10 4 4 11 9 2 3 9 10
Wind_Direction_850mb
339 338 335 333 339 341 338 333 329 326 322 318 313 311 311 309 308 307 306 304 304 306 308 314 305 270 267 251 249 275 291 229 190 193 194 182 184 193 196 193 138 240 224 211 259 256 253
335 333 329 335 340 340 344 341 337 330 323 323 323 316 314 312 307 303 301 300 299 299 300 306 299 259 240 252 263 255 271 250 199 189 186 179 186 177 193 191 192 204 223 234 248 252 246
330 330 327 334 338 341 342 342 338 332 327 326 324 323 318 317 313 306 298 295 296 292 292 294 284 247 252 248 264 250 283 244 196 192 184 184 175 173 158 158 206 188 200 223 213 246 258
329 327 326 331 336 338 341 338 335 331 326 322 323 323 320 319 317 310 304 298 297 290 289 281 251 226 255 263 239 242 254 227 196 191 196 195 188 196 180 145 148 199 229 228 211 199 231
328 324 324 328 333 337 340 339 334 330 326 320 317 317 317 314 314 311 305 303 306 295 284 246 193 218 263 245 239 219 203 200 172 170 190 183 189 200 179 186 170 191 210 211 238 200 178
327 325 321 325 330 336 340 341 338 330 325 322 316 314 314 314 313 312 307 303 306 282 196 168 209 242 250 234 216 189 163 176 157 156 133 177 182 199 197 194 194 186 203 196 205 189 212
328 322 319 322 327 334 338 336 337 338 335 327 322 317 314 313 312 310 308 314 253 232 205 200 209 215 284 203 178 171 167 146 150 169 173 172 190 204 196 204 209 191 200 213 197 164 167
326 321 317 320 324 329 332 331 333 334 337 335 325 316 310 307 307 304 294 258 224 218 270 248 237 246 235 138 171 164 152 144 155 172 163 161 205 204 203 203 209 200 202 205 261 253 200
325 321 316 318 321 325 327 326 328 327 329 330 329 320 313 308 309 304 282 262 270 210 262 254 226 225 230 226 224 181 173 145 166 170 183 185 190 180 173 183 188 204 221 210 241 71 235
328 324 319 317 315 317 319 317 319 324 323 324 325 325 318 312 311 288 303 232 212 219 270 232 196 229 197 196 217 188 182 167 166 177 172 188 158 178 177 184 188 206 204 217 223 211 230
320 319 317 314 312 317 317 319 319 319 319 320 320 319 313 306 292 285 273 29 266 180 269 157 162 165 173 171 140 179 182 183 175 156 173 168 171 161 183 205 192 220 191 207 216 209 208
318 309 306 307 307 312 316 318 313 317 317 317 316 312 309 302 283 284 252 207 158 209 247 192 148 175 163 190 143 141 173 187 161 144 193 159 161 183 200 177 187 155 118 78 97 174 242
330 330 324 319 315 311 309 309 311 315 316 315 315 307 296 284 268 298 197 175 196 223 307 182 179 172 182 164 168 177 168 179 174 173 186 184 170 154 153 137 159 174 168 170 209 218 249
331 331 325 327 319 317 316 314 310 313 312 318 318 312 304 284 268 234 170 191 215 211 232 357 173 163 184 172 178 188 184 178 187 177 178 183 199 215 158 198 173 189 195 195 206 216 227
334 333 333 333 330 326 327 329 329 330 329 327 322 322 307 309 235 200 214 205 218 207 244 200 238 163 184 167 168 186 232 192 182 169 166 185 181 125 210 205 195 164 201 233 127 54 249
340 337 337 337 336 337 336 336 335 334 330 331 329 317 305 338 203 177 208 226 223 218 155 123 208 192 175 185 158 181 189 206 185 188 165 188 173 219 117 157 86 215 154 169 197 218 235
342 344 342 338 338 342 338 335 334 334 333 338 337 311 337 320 160 176 212 223 229 246 112 60 219 210 209 180 194 186 178 164 184 157 157 151 159 173 215 60 161 150 176 96 141 231 233
344 346 349 349 344 342 338 334 335 336 335 343 338 301 349 157 178 211 224 225 235 237 136 117 218 91 306 166 174 154 159 154 160 147 161 39 123 156 187 24 317 58 131 182 220 199 174
348 348 347 345 344 341 338 338 338 341 340 341 317 278 298 193 216 223 234 228 241 251 158 146 152 135 339 280 126 126 110 29 129 130 152 173 122 131 122 79 40 155 106 114 102 121 199
344 347 345 345 344 343 341 341 342 342 337 338 302 303 281 204 279 330 241 233 229 224 185 135 86 131 340 347 45 116 114 48 76 99 108 105 96 116 184 115 129 158 157 151 196 211 239
345 349 348 345 346 345 343 344 344 343 342 331 268 274 341 318 329 320 277 23 312 204 93 63 71 46 139 41 67 53 89 119 54 34 52 87 91 82 70 116 116 150 178 183 208 219 224
354 347 349 346 345 345 348 346 346 349 346 342 293 332 326 304 340 343 155 22 335 102 104 143 108 359 247 177 189 170 152 154 118 67 80 39 119 126 135 115 116 242 238 235 237 241 248
345 345 347 345 343 345 348 350 344 351 356 346 335 321 300 301 2 358 356 64 299 188 54 88 115 104 88 83 95 96 101 75 105 114 98 80 130 132 146 76 17 265 240 223 210 202 223
352 353 351 348 345 347 353 354 344 352 351 345 337 334 310 328 5 4 349 44 48 45 113 58 64 172 91 111 89 69 62 62 60 49 60 119 100 68 123 142 215 89 206 276 207 207 212
348 351 351 352 349 354 355 354 349 351 351 343 339 343 319 326 357 354 10 32 59 56 78 69 29 339 144 47 81 89 59 72 35 36 29 82 108 107 159 197 329 162 167 165 181 132 194
351 350 352 354 356 358 354 355 358 354 355 348 354 3 340 313 17 333 345 40 43 42 26 64 62 33 34 48 74 117 131 113 134 95 37 65 88 100 150 194 196 90 121 102 133 239 141
352 350 352 353 353 350 351 354 1 6 2 359 6 3 340 325 11 15 355 14 73 352 95 342 354 9 29 89 84 92 108 122 128 133 161 129 74 157 159 197 275 212 147 140 214 71 151
349 350 350 354 354 350 350 357 4 5 4 8 350 354 13 340 335 37 14 23 21 29 32 68 227 18 18 65 63 72 94 86 116 131 157 165 160 183 169 188 249 136 135 221 78 170 223
350 350 353 356 348 2 353 2 5 10 360 6 9 351 336 319 298 322 337 356 23 34 24 23 87 33 47 94 81 129 99 103 112 157 128 176 225 179 206 198 51 157 93 25 294 283 281